Meridianville, AL

4:32 PM CDT on August 24, 2016 (GMT -0500)
Huntsville Madison

Weather History for KMDQ - November, 2013

Change the Weather History Date:

Monday, November 25, 2013

  Actual Average (KHSV) Record (KHSV)
Temperature  
Mean Temperature 34 °F 49 °F  
Max Temperature 41 °F 60 °F 75 °F (1958)
Min Temperature 26 °F 39 °F 1 °F (1950)
Degree Days  
Heating Degree Days 32 16  
Month to date heating degree days 293  
Since 1 July heating degree days 444  
Cooling Degree Days 0 0  
Month to date cooling degree days 7  
Year to date cooling degree days 1947  
Moisture  
Dew Point 17 °F    
Average Humidity 54    
Maximum Humidity 93    
Minimum Humidity 18    
Precipitation  
Precipitation 0.30 in 0.18 in 3.10 in (1902)
Month to date precipitation 3.97  
Year to date precipitation 47.60  
Snow  
Snow 0.00 in - - ()
Month to date snowfall  
Since 1 July snowfall  
Since 1 September snowfall  
Snow Depth -    
Sea Level Pressure  
Sea Level Pressure 30.31 in    
Wind  
Wind Speed 4 mph (SE)    
Max Wind Speed 15 mph    
Max Gust Speed 24 mph    
Visibility 8 miles    
Events Rain    
T = Trace of Precipitation, MM = Missing Value Source: NWS Daily Summary

Daily Weather History Graph

Daily Weather History Graph

Search for Another Location

Airport or City:

Trip Planner

Search our weather history database for the weather conditions in past years. The results will help you decide how hot, cold, wet, or windy it might be!

Date:

Astronomy

Nov. 25, 2013 Rise Set
Actual Time 6:30 AM CST 4:36 PM CST
Civil Twilight 6:02 AM CST 5:03 PM CST
Nautical Twilight 5:31 AM CST 5:34 PM CST
Astronomical Twilight 5:01 AM CST 6:04 PM CST
Moon 11:49 PM CST (11/25) 11:56 AM CST (11/25)
Length of Visible Light 11h 00m
Length of Day
10h 05m
Waning Gibbous, 51% of the Moon is Illuminated
Nov 25
Waning Gibbous
Nov 25
Last Quarter
Dec 2
New
Dec 9
First Quarter
Dec 17
Full

Hourly Weather History & Observations

Time (CST) Temp. Windchill Dew Point Humidity Pressure Visibility Wind Dir Wind Speed Gust Speed Precip Events Conditions
12:15 AM 28.4 °F - 12.2 °F 51% 30.43 in 10.0 mi Calm Calm - N/A   Clear
12:35 AM 26.6 °F - 14.0 °F 59% 30.42 in 10.0 mi Calm Calm - N/A   Clear
12:55 AM 26.6 °F - 14.0 °F 59% 30.42 in 10.0 mi Calm Calm - N/A   Clear
1:15 AM 26.6 °F - 14.0 °F 59% 30.42 in 10.0 mi Calm Calm - N/A   Clear
1:35 AM 26.6 °F - 14.0 °F 59% 30.42 in 10.0 mi Calm Calm - N/A   Clear
1:55 AM 26.6 °F - 14.0 °F 59% 30.41 in 10.0 mi Calm Calm - N/A   Clear
2:15 AM 28.4 °F - 12.2 °F 51% 30.40 in 10.0 mi Calm Calm - N/A   Clear
2:35 AM 28.4 °F - 14.0 °F 55% 30.39 in 10.0 mi Calm Calm - N/A   Clear
2:55 AM 28.4 °F - 17.6 °F 64% 30.39 in 10.0 mi Calm Calm - N/A   Clear
3:15 AM 28.4 °F - 17.6 °F 64% 30.38 in 10.0 mi Calm Calm - N/A   Clear
3:35 AM 28.4 °F - 17.6 °F 64% 30.38 in 10.0 mi Calm Calm - N/A   Clear
3:55 AM 30.2 °F - 17.6 °F 60% 30.38 in 10.0 mi Calm Calm - N/A   Clear
4:15 AM 32.0 °F 26.4 °F 12.2 °F 44% 30.38 in 10.0 mi SE 5.8 mph - N/A   Clear
4:35 AM 33.8 °F 28.6 °F 10.4 °F 38% 30.37 in 10.0 mi SSE 5.8 mph - N/A   Clear
4:55 AM 35.6 °F 28.6 °F 8.6 °F 33% 30.37 in 10.0 mi SSE 9.2 mph - N/A   Clear
5:15 AM 35.6 °F 29.9 °F 8.6 °F 33% 30.37 in 10.0 mi SSE 6.9 mph 17.3 mph N/A   Clear
5:35 AM 35.6 °F 29.2 °F 8.6 °F 33% 30.38 in 10.0 mi SSE 8.1 mph - N/A   Clear
5:55 AM 35.6 °F 30.7 °F 8.6 °F 33% 30.38 in 10.0 mi SSE 5.8 mph - N/A   Clear
6:15 AM 35.6 °F 32.8 °F 10.4 °F 35% 30.39 in 10.0 mi South 3.5 mph - N/A   Clear
6:35 AM 35.6 °F 30.7 °F 8.6 °F 33% 30.38 in 10.0 mi SE 5.8 mph - N/A   Clear
6:55 AM 35.6 °F 28.0 °F 6.8 °F 30% 30.38 in 10.0 mi SSE 10.4 mph 18.4 mph N/A   Clear
7:15 AM 35.6 °F 28.6 °F 5.0 °F 28% 30.39 in 10.0 mi SSE 9.2 mph 17.3 mph N/A   Clear
7:35 AM 37.4 °F 29.8 °F 5.0 °F 26% 30.39 in 10.0 mi SSE 11.5 mph 18.4 mph N/A   Clear
7:55 AM 37.4 °F 31.4 °F 5.0 °F 26% 30.39 in 10.0 mi SSE 8.1 mph - N/A   Clear
8:15 AM 37.4 °F 30.8 °F 6.8 °F 28% 30.39 in 10.0 mi SSE 9.2 mph - N/A   Clear
8:35 AM 37.4 °F 30.3 °F 5.0 °F 26% 30.37 in 10.0 mi SE 10.4 mph 17.3 mph N/A   Clear
8:55 AM 37.4 °F 30.8 °F 5.0 °F 26% 30.38 in 10.0 mi SE 9.2 mph 17.3 mph N/A   Clear
9:15 AM 37.4 °F 30.3 °F 3.2 °F 24% 30.37 in 10.0 mi SE 10.4 mph - N/A   Clear
9:35 AM 37.4 °F 29.3 °F 3.2 °F 24% 30.36 in 10.0 mi SE 12.7 mph 24.2 mph N/A   Clear
9:55 AM 37.4 °F 31.4 °F 3.2 °F 24% 30.36 in 10.0 mi SE 8.1 mph 16.1 mph N/A   Clear
10:15 AM 39.2 °F 30.8 °F 1.4 °F 21% 30.36 in 10.0 mi SSE 15.0 mph 21.9 mph N/A   Clear
10:35 AM 41.0 °F 35.2 °F 1.4 °F 19% 30.36 in 10.0 mi SE 9.2 mph 18.4 mph N/A   Clear
10:55 AM 41.0 °F 37.1 °F -0.4 °F 18% 30.35 in 10.0 mi SSE 5.8 mph 18.4 mph N/A   Clear
11:15 AM 41.0 °F 35.8 °F 1.4 °F 19% 30.34 in 10.0 mi SE 8.1 mph - N/A   Clear
11:35 AM 41.0 °F 35.2 °F 1.4 °F 19% 30.33 in 10.0 mi SSE 9.2 mph - N/A   Clear
11:55 AM 41.0 °F 36.4 °F 1.4 °F 19% 30.31 in 10.0 mi SE 6.9 mph - N/A   Clear
12:15 PM 41.0 °F 35.8 °F 3.2 °F 21% 30.31 in 10.0 mi SE 8.1 mph - N/A   Clear
12:35 PM 41.0 °F 35.8 °F 5.0 °F 23% 30.30 in 10.0 mi SE 8.1 mph - N/A   Clear
12:55 PM 41.0 °F 36.4 °F 5.0 °F 23% 30.29 in 10.0 mi SE 6.9 mph - N/A   Clear
1:15 PM 41.0 °F 39.0 °F 8.6 °F 26% 30.28 in 10.0 mi SSE 3.5 mph - N/A   Light Drizzle
1:35 PM 41.0 °F 37.1 °F 10.4 °F 29% 30.29 in 10.0 mi SSE 5.8 mph - N/A   Clear
1:55 PM 41.0 °F 37.1 °F 10.4 °F 29% 30.28 in 10.0 mi South 5.8 mph - N/A   Mostly Cloudy
2:15 PM 41.0 °F 39.0 °F 10.4 °F 29% 30.28 in 10.0 mi SE 3.5 mph - N/A   Overcast
2:35 PM 41.0 °F 39.0 °F 12.2 °F 31% 30.28 in 10.0 mi East 3.5 mph - N/A Rain Light Rain
2:55 PM 41.0 °F - 15.8 °F 36% 30.28 in 10.0 mi Calm Calm - N/A Rain Rain
3:15 PM 39.2 °F - 28.4 °F 65% 30.27 in 7.0 mi Calm Calm - N/A Rain Light Rain
3:35 PM 37.4 °F 34.9 °F 30.2 °F 75% 30.26 in 3.0 mi SE 3.5 mph - 0.02 in Rain Rain
3:55 PM 37.4 °F - 30.2 °F 75% 30.26 in 5.0 mi Calm Calm - 0.02 in Rain Light Rain
4:15 PM 37.4 °F - 32.0 °F 81% 30.25 in 7.0 mi Calm Calm - 0.01 in Rain Light Rain
4:35 PM 37.4 °F - 32.0 °F 81% 30.25 in 7.0 mi Calm Calm - 0.01 in Rain Light Rain
4:55 PM 35.6 °F - 30.2 °F 81% 30.24 in 10.0 mi Calm Calm - 0.01 in Rain Rain
5:15 PM 35.6 °F 32.8 °F 32.0 °F 87% 30.24 in 10.0 mi East 3.5 mph - N/A Rain Light Rain
5:35 PM 35.6 °F - 32.0 °F 87% 30.25 in 5.0 mi Calm Calm - 0.01 in Rain Light Rain
5:55 PM 35.6 °F - 32.0 °F 87% 30.25 in 7.0 mi Calm Calm - 0.02 in Rain Light Rain
6:15 PM 35.6 °F 30.7 °F 32.0 °F 87% 30.25 in 5.0 mi SE 5.8 mph - 0.01 in Rain Rain
6:35 PM 35.6 °F 30.7 °F 32.0 °F 87% 30.24 in 7.0 mi ESE 5.8 mph - 0.02 in Rain Rain
6:55 PM 35.6 °F - 32.0 °F 87% 30.24 in 7.0 mi Calm Calm - 0.03 in Rain Light Rain
7:15 PM 35.6 °F 32.8 °F 32.0 °F 87% 30.24 in 5.0 mi ESE 3.5 mph - 0.02 in Rain Light Rain
7:35 PM 35.6 °F 32.8 °F 32.0 °F 87% 30.24 in 7.0 mi ESE 3.5 mph - 0.03 in Rain Light Rain
7:55 PM 35.6 °F 31.7 °F 32.0 °F 87% 30.23 in 7.0 mi ESE 4.6 mph - 0.03 in Rain Light Rain
8:15 PM 35.6 °F 31.7 °F 32.0 °F 87% 30.21 in 7.0 mi SE 4.6 mph - 0.01 in Rain Light Rain
8:35 PM 35.6 °F 31.7 °F 32.0 °F 87% 30.20 in 5.0 mi SE 4.6 mph - 0.02 in Rain Rain
8:55 PM 35.6 °F 30.7 °F 32.0 °F 87% 30.19 in 4.0 mi ESE 5.8 mph - 0.03 in Rain Rain
9:15 PM 35.6 °F 29.9 °F 32.0 °F 87% 30.17 in 4.0 mi SE 6.9 mph 16.1 mph 0.02 in Rain Rain
9:35 PM 35.6 °F 30.7 °F 32.0 °F 87% 30.17 in 5.0 mi SE 5.8 mph - 0.04 in Rain Light Rain
9:55 PM 35.6 °F 29.2 °F 32.0 °F 87% 30.17 in 4.0 mi SE 8.1 mph - 0.05 in Rain Rain
10:15 PM 35.6 °F 29.9 °F 32.0 °F 87% 30.17 in 4.0 mi SE 6.9 mph - 0.01 in Rain Rain
10:35 PM 35.6 °F 29.9 °F 32.0 °F 87% 30.15 in 5.0 mi ESE 6.9 mph - 0.03 in Rain Light Rain
10:55 PM 35.6 °F 32.8 °F 32.0 °F 87% 30.15 in 4.0 mi SE 3.5 mph - 0.04 in Rain Rain
11:15 PM 35.6 °F 31.7 °F 33.8 °F 93% 30.14 in 4.0 mi ESE 4.6 mph - 0.03 in Rain Rain
11:35 PM 35.6 °F 31.7 °F 33.8 °F 93% 30.14 in 3.0 mi SE 4.6 mph - 0.05 in Rain Rain
11:55 PM 35.6 °F 31.7 °F 33.8 °F 93% 30.14 in 4.0 mi SE 4.6 mph - 0.07 in Rain Rain